Time,TemperatureF,DewpointF,PressureIn,WindDirection,WindDirectionDegrees,WindSpeedMPH,WindSpeedGustMPH,Humidity,HourlyPrecipIn,Conditions,Clouds,dailyrainin,SolarRadiationWatts/m^2,SoftwareType,DateUTC
2013-03-13 00:03:00,55.0,53.0,-100.00,WNW,295,6.0,-999.0,93,0.00,,,-99.99,0.000000,,2013-03-13 04:03:00,
2013-03-13 00:13:00,54.0,53.0,-100.00,WNW,301,5.0,-999.0,93,0.00,,,-99.99,0.000000,,2013-03-13 04:13:00,
2013-03-13 00:22:00,54.0,53.0,-100.00,WNW,301,5.0,-999.0,93,0.00,,,-99.99,0.000000,,2013-03-13 04:22:00,
2013-03-13 00:32:00,54.0,52.0,-100.00,NW,311,5.0,-999.0,93,0.00,,,-99.99,0.000000,,2013-03-13 04:32:00,
2013-03-13 00:43:00,54.0,52.0,-100.00,NW,309,7.0,-999.0,93,0.00,,,-99.99,0.000000,,2013-03-13 04:43:00,
2013-03-13 00:53:00,54.0,52.0,-100.00,NW,309,7.0,-999.0,93,0.00,,,-99.99,0.000000,,2013-03-13 04:53:00,
2013-03-13 01:02:00,54.0,52.0,-100.00,WNW,302,8.0,-999.0,94,0.00,,,-99.99,0.000000,,2013-03-13 05:02:00,
2013-03-13 01:12:00,54.0,52.0,-100.00,WNW,302,8.0,-999.0,94,0.00,,,-99.99,0.000000,,2013-03-13 05:12:00,
2013-03-13 01:22:00,54.0,52.0,-100.00,WNW,302,8.0,-999.0,94,0.00,,,-99.99,0.000000,,2013-03-13 05:22:00,
2013-03-13 01:32:00,53.0,52.0,-100.00,NW,305,9.0,-999.0,94,0.00,,,-99.99,0.000000,,2013-03-13 05:32:00,
2013-03-13 01:42:00,53.0,52.0,-100.00,NW,308,9.0,-999.0,94,0.00,,,-99.99,0.000000,,2013-03-13 05:42:00,
2013-03-13 01:52:00,53.0,52.0,-100.00,NW,308,9.0,-999.0,94,0.00,,,-99.99,0.000000,,2013-03-13 05:52:00,
2013-03-13 02:02:00,53.0,52.0,-100.00,NW,305,8.0,-999.0,95,0.00,,,-99.99,0.000000,,2013-03-13 06:02:00,
2013-03-13 02:13:00,53.0,52.0,-100.00,NW,311,7.0,-999.0,95,0.00,,,-99.99,0.000000,,2013-03-13 06:13:00,
2013-03-13 02:23:00,53.0,52.0,-100.00,NW,311,7.0,-999.0,95,0.00,,,-99.99,0.000000,,2013-03-13 06:23:00,
2013-03-13 02:32:00,53.0,52.0,-100.00,NW,316,8.0,-999.0,95,0.00,,,-99.99,0.000000,,2013-03-13 06:32:00,
2013-03-13 02:42:00,53.0,52.0,-100.00,NW,325,6.0,-999.0,95,0.00,,,-99.99,0.000000,,2013-03-13 06:42:00,
2013-03-13 02:53:00,53.0,52.0,-100.00,NW,325,6.0,-999.0,95,0.00,,,-99.99,0.000000,,2013-03-13 06:53:00,
2013-03-13 03:02:00,53.0,52.0,-100.00,NW,326,7.0,-999.0,94,0.00,,,-99.99,0.000000,,2013-03-13 07:02:00,
2013-03-13 03:12:00,53.0,51.0,-100.00,NNW,328,8.0,-999.0,94,0.00,,,-99.99,0.000000,,2013-03-13 07:12:00,
2013-03-13 03:22:00,53.0,51.0,-100.00,NNW,328,8.0,-999.0,94,0.00,,,-99.99,0.000000,,2013-03-13 07:22:00,
2013-03-13 03:32:00,53.0,51.0,-100.00,NNW,327,8.0,-999.0,92,0.00,,,-99.99,0.000000,,2013-03-13 07:32:00,
2013-03-13 03:42:00,52.0,50.0,-100.00,NNW,332,7.0,-999.0,91,0.00,,,-99.99,0.000000,,2013-03-13 07:42:00,
2013-03-13 03:53:00,52.0,50.0,-100.00,NNW,332,7.0,-999.0,91,0.00,,,-99.99,0.000000,,2013-03-13 07:53:00,
2013-03-13 04:03:00,52.0,49.0,-100.00,NNW,331,6.0,-999.0,90,0.00,,,-99.99,0.000000,,2013-03-13 08:03:00,
2013-03-13 04:12:00,52.0,49.0,-100.00,NNW,332,7.0,-999.0,89,0.00,,,-99.99,0.000000,,2013-03-13 08:12:00,
2013-03-13 04:22:00,52.0,49.0,-100.00,NNW,332,7.0,-999.0,89,0.00,,,-99.99,0.000000,,2013-03-13 08:22:00,
2013-03-13 04:32:00,52.0,49.0,-100.00,NNW,331,7.0,-999.0,87,0.00,,,-99.99,0.000000,,2013-03-13 08:32:00,
2013-03-13 04:43:00,52.0,48.0,-100.00,NNW,328,7.0,-999.0,87,0.00,,,-99.99,0.000000,,2013-03-13 08:43:00,
2013-03-13 04:54:00,52.0,48.0,-100.00,NNW,328,7.0,-999.0,87,0.00,,,-99.99,0.000000,,2013-03-13 08:54:00,
2013-03-13 05:02:00,52.0,48.0,-100.00,NW,325,8.0,-999.0,87,0.00,,,-99.99,0.000000,,2013-03-13 09:02:00,
2013-03-13 05:12:00,52.0,48.0,-100.00,NW,322,9.0,-999.0,86,0.00,,,-99.99,0.000000,,2013-03-13 09:12:00,
2013-03-13 05:22:00,52.0,48.0,-100.00,NW,322,9.0,-999.0,86,0.00,,,-99.99,0.000000,,2013-03-13 09:22:00,
2013-03-13 05:32:00,52.0,48.0,-100.00,NNW,327,8.0,-999.0,86,0.00,,,-99.99,0.000000,,2013-03-13 09:32:00,
2013-03-13 05:42:00,52.0,48.0,-100.00,NNW,330,9.0,-999.0,86,0.00,,,-99.99,0.000000,,2013-03-13 09:42:00,
2013-03-13 05:52:00,52.0,48.0,-100.00,NNW,330,9.0,-999.0,86,0.00,,,-99.99,0.000000,,2013-03-13 09:52:00,
2013-03-13 06:02:00,52.0,47.0,-100.00,NNW,332,9.0,-999.0,85,0.00,,,-99.99,0.000000,,2013-03-13 10:02:00,
2013-03-13 06:12:00,52.0,47.0,-100.00,NNW,332,9.0,-999.0,82,0.00,,,-99.99,0.000000,,2013-03-13 10:12:00,
2013-03-13 06:22:00,52.0,47.0,-100.00,NNW,332,9.0,-999.0,82,0.00,,,-99.99,0.000000,,2013-03-13 10:22:00,
2013-03-13 06:32:00,52.0,46.0,-100.00,NNW,334,9.0,-999.0,82,0.00,,,-99.99,0.000000,,2013-03-13 10:32:00,
2013-03-13 06:42:00,52.0,46.0,-100.00,NNW,333,10.0,-999.0,80,0.00,,,-99.99,0.000000,,2013-03-13 10:42:00,
2013-03-13 06:52:00,52.0,46.0,-100.00,NNW,333,10.0,-999.0,80,0.00,,,-99.99,0.000000,,2013-03-13 10:52:00,
2013-03-13 07:02:00,51.0,46.0,-100.00,NNW,332,8.0,-999.0,80,0.00,,,-99.99,0.000000,,2013-03-13 11:02:00,
2013-03-13 07:12:00,51.0,45.0,-100.00,NNW,330,8.0,-999.0,81,0.00,,,-99.99,0.000000,,2013-03-13 11:12:00,
2013-03-13 07:22:00,51.0,45.0,-100.00,NNW,330,8.0,-999.0,81,0.00,,,-99.99,0.000000,,2013-03-13 11:22:00,
2013-03-13 07:32:00,51.0,45.0,-100.00,NNW,336,7.0,-999.0,82,0.00,,,-99.99,0.000000,,2013-03-13 11:32:00,
2013-03-13 07:42:00,51.0,45.0,-100.00,NNW,340,7.0,-999.0,82,0.00,,,-99.99,0.200000,,2013-03-13 11:42:00,
2013-03-13 07:53:00,51.0,45.0,-100.00,NNW,340,7.0,-999.0,82,0.00,,,-99.99,0.200000,,2013-03-13 11:53:00,
2013-03-13 08:02:00,51.0,45.0,-100.00,NNW,340,7.0,-999.0,81,0.00,,,-99.99,4.900000,,2013-03-13 12:02:00,
2013-03-13 08:12:00,50.0,45.0,-100.00,NNW,333,6.0,-999.0,82,0.00,,,-99.99,24.200001,,2013-03-13 12:12:00,
2013-03-13 08:22:00,50.0,45.0,-100.00,NNW,333,6.0,-999.0,82,0.00,,,-99.99,24.200001,,2013-03-13 12:22:00,
2013-03-13 08:32:00,51.0,46.0,-100.00,NNW,332,6.0,-999.0,82,0.00,,,-99.99,88.199997,,2013-03-13 12:32:00,
2013-03-13 08:42:00,52.0,46.0,-100.00,NNW,342,7.0,-999.0,79,0.00,,,-99.99,153.899994,,2013-03-13 12:42:00,
2013-03-13 08:53:00,52.0,46.0,-100.00,NNW,342,7.0,-999.0,79,0.00,,,-99.99,153.899994,,2013-03-13 12:53:00,
2013-03-13 09:02:00,54.0,45.0,-100.00,North,354,9.0,-999.0,72,0.00,,,-99.99,143.199997,,2013-03-13 13:02:00,
2013-03-13 09:12:00,54.0,44.0,-100.00,North,0,11.0,-999.0,69,0.00,,,-99.99,167.600006,,2013-03-13 13:12:00,
2013-03-13 09:22:00,54.0,44.0,-100.00,North,0,11.0,-999.0,69,0.00,,,-99.99,167.600006,,2013-03-13 13:22:00,
2013-03-13 09:33:00,55.0,45.0,-100.00,North,3,10.0,-999.0,67,0.00,,,-99.99,277.200012,,2013-03-13 13:33:00,
2013-03-13 09:43:00,56.0,44.0,-100.00,North,7,12.0,-999.0,64,0.00,,,-99.99,348.200012,,2013-03-13 13:43:00,
2013-03-13 09:53:00,56.0,44.0,-100.00,North,7,12.0,-999.0,64,0.00,,,-99.99,348.200012,,2013-03-13 13:53:00,
2013-03-13 10:02:00,57.0,43.0,-100.00,North,9,13.0,-999.0,60,0.00,,,-99.99,400.600006,,2013-03-13 14:02:00,
2013-03-13 10:12:00,58.0,43.0,-100.00,North,11,12.0,-999.0,57,0.00,,,-99.99,442.899994,,2013-03-13 14:12:00,
2013-03-13 10:22:00,58.0,43.0,-100.00,North,11,12.0,-999.0,57,0.00,,,-99.99,442.899994,,2013-03-13 14:22:00,
2013-03-13 10:33:00,59.0,42.0,-100.00,North,9,13.0,-999.0,54,0.00,,,-99.99,509.000000,,2013-03-13 14:33:00,
2013-03-13 10:42:00,60.0,42.0,-100.00,North,10,11.0,-999.0,51,0.00,,,-99.99,559.200012,,2013-03-13 14:42:00,
2013-03-13 10:53:00,60.0,42.0,-100.00,North,10,11.0,-999.0,51,0.00,,,-99.99,559.200012,,2013-03-13 14:53:00,
2013-03-13 11:03:00,62.0,42.0,-100.00,North,9,10.0,-999.0,48,0.00,,,-99.99,388.700012,,2013-03-13 15:03:00,
2013-03-13 11:12:00,63.0,41.0,-100.00,North,6,10.0,-999.0,44,0.00,,,-99.99,651.099976,,2013-03-13 15:12:00,
2013-03-13 11:22:00,63.0,41.0,-100.00,North,6,10.0,-999.0,44,0.00,,,-99.99,651.099976,,2013-03-13 15:22:00,
2013-03-13 11:32:00,64.0,39.0,-100.00,NNE,15,10.0,-999.0,39,0.00,,,-99.99,692.700012,,2013-03-13 15:32:00,
2013-03-13 11:43:00,65.0,39.0,-100.00,North,7,9.0,-999.0,38,0.00,,,-99.99,729.000000,,2013-03-13 15:43:00,
2013-03-13 11:53:00,65.0,39.0,-100.00,North,7,9.0,-999.0,38,0.00,,,-99.99,729.000000,,2013-03-13 15:53:00,
2013-03-13 12:03:00,67.0,38.0,-100.00,North,2,10.0,-999.0,34,0.00,,,-99.99,764.000000,,2013-03-13 16:03:00,
2013-03-13 12:12:00,67.0,36.0,-100.00,NNE,13,11.0,-999.0,31,0.00,,,-99.99,794.000000,,2013-03-13 16:12:00,
2013-03-13 12:22:00,67.0,36.0,-100.00,NNE,13,11.0,-999.0,31,0.00,,,-99.99,794.000000,,2013-03-13 16:22:00,
2013-03-13 12:32:00,69.0,36.0,-100.00,North,4,9.0,-999.0,29,0.00,,,-99.99,822.000000,,2013-03-13 16:32:00,
2013-03-13 12:42:00,69.0,36.0,-100.00,North,11,9.0,-999.0,29,0.00,,,-99.99,831.000000,,2013-03-13 16:42:00,
2013-03-13 12:52:00,69.0,36.0,-100.00,North,11,9.0,-999.0,29,0.00,,,-99.99,831.000000,,2013-03-13 16:52:00,
2013-03-13 13:02:00,70.0,36.0,-100.00,North,6,8.0,-999.0,28,0.00,,,-99.99,846.000000,,2013-03-13 17:02:00,
2013-03-13 13:12:00,71.0,35.0,-100.00,NNE,20,9.0,-999.0,27,0.00,,,-99.99,857.000000,,2013-03-13 17:12:00,
2013-03-13 13:22:00,71.0,35.0,-100.00,NNE,20,9.0,-999.0,27,0.00,,,-99.99,857.000000,,2013-03-13 17:22:00,
2013-03-13 13:32:00,72.0,34.0,-100.00,North,357,10.0,-999.0,25,0.00,,,-99.99,891.000000,,2013-03-13 17:32:00,
2013-03-13 13:42:00,72.0,34.0,-100.00,North,359,9.0,-999.0,24,0.00,,,-99.99,861.000000,,2013-03-13 17:42:00,
2013-03-13 13:53:00,72.0,34.0,-100.00,North,359,9.0,-999.0,24,0.00,,,-99.99,861.000000,,2013-03-13 17:53:00,
2013-03-13 14:02:00,73.0,35.0,-100.00,NNW,344,9.0,-999.0,24,0.00,,,-99.99,866.000000,,2013-03-13 18:02:00,
2013-03-13 14:12:00,73.0,34.0,-100.00,NNW,342,12.0,-999.0,23,0.00,,,-99.99,893.000000,,2013-03-13 18:12:00,
2013-03-13 14:22:00,73.0,34.0,-100.00,NNW,342,12.0,-999.0,23,0.00,,,-99.99,893.000000,,2013-03-13 18:22:00,
2013-03-13 14:33:00,73.0,35.0,-100.00,NNW,339,10.0,-999.0,24,0.00,,,-99.99,873.000000,,2013-03-13 18:33:00,
2013-03-13 14:42:00,73.0,35.0,-100.00,NNW,339,10.0,-999.0,24,0.00,,,-99.99,873.000000,,2013-03-13 18:42:00,
2013-03-13 14:52:00,74.0,35.0,-100.00,NNW,346,11.0,-999.0,23,0.00,,,-99.99,862.000000,,2013-03-13 18:52:00,
2013-03-13 15:02:00,74.0,35.0,-100.00,NNW,348,9.0,-999.0,24,0.00,,,-99.99,850.000000,,2013-03-13 19:02:00,
2013-03-13 15:12:00,74.0,35.0,-100.00,NNW,337,11.0,-999.0,23,0.00,,,-99.99,823.000000,,2013-03-13 19:12:00,
2013-03-13 15:22:00,74.0,35.0,-100.00,NNW,337,11.0,-999.0,23,0.00,,,-99.99,823.000000,,2013-03-13 19:22:00,
2013-03-13 15:32:00,74.0,34.0,-100.00,NNW,340,12.0,-999.0,22,0.00,,,-99.99,805.000000,,2013-03-13 19:32:00,
2013-03-13 15:43:00,74.0,33.0,-100.00,NNW,344,14.0,-999.0,21,0.00,,,-99.99,781.000000,,2013-03-13 19:43:00,
2013-03-13 15:53:00,74.0,33.0,-100.00,NNW,344,14.0,-999.0,21,0.00,,,-99.99,781.000000,,2013-03-13 19:53:00,
2013-03-13 16:02:00,74.0,32.0,-100.00,North,358,12.0,-999.0,21,0.00,,,-99.99,730.000000,,2013-03-13 20:02:00,
2013-03-13 16:12:00,74.0,33.0,-100.00,North,355,10.0,-999.0,22,0.00,,,-99.99,690.900024,,2013-03-13 20:12:00,
2013-03-13 16:22:00,74.0,33.0,-100.00,North,355,10.0,-999.0,22,0.00,,,-99.99,690.900024,,2013-03-13 20:22:00,
2013-03-13 16:32:00,74.0,34.0,-100.00,North,353,9.0,-999.0,23,0.00,,,-99.99,651.500000,,2013-03-13 20:32:00,
2013-03-13 16:42:00,74.0,34.0,-100.00,North,2,10.0,-999.0,23,0.00,,,-99.99,580.700012,,2013-03-13 20:42:00,
2013-03-13 16:52:00,74.0,34.0,-100.00,North,2,10.0,-999.0,23,0.00,,,-99.99,580.700012,,2013-03-13 20:52:00,
2013-03-13 17:02:00,74.0,35.0,-100.00,North,360,7.0,-999.0,23,0.00,,,-99.99,516.000000,,2013-03-13 21:02:00,
2013-03-13 17:12:00,75.0,35.0,-100.00,NW,322,9.0,-999.0,23,0.00,,,-99.99,486.500000,,2013-03-13 21:12:00,
2013-03-13 17:22:00,75.0,35.0,-100.00,NW,322,9.0,-999.0,23,0.00,,,-99.99,486.500000,,2013-03-13 21:22:00,
2013-03-13 17:33:00,75.0,35.0,-100.00,NW,324,7.0,-999.0,22,0.00,,,-99.99,475.600006,,2013-03-13 21:33:00,
2013-03-13 17:42:00,74.0,34.0,-100.00,North,349,9.0,-999.0,22,0.00,,,-99.99,413.500000,,2013-03-13 21:42:00,
2013-03-13 17:52:00,74.0,34.0,-100.00,North,349,9.0,-999.0,22,0.00,,,-99.99,413.500000,,2013-03-13 21:52:00,
2013-03-13 18:02:00,74.0,34.0,-100.00,North,353,8.0,-999.0,23,0.00,,,-99.99,372.600006,,2013-03-13 22:02:00,
2013-03-13 18:12:00,74.0,35.0,-100.00,NNW,332,7.0,-999.0,24,0.00,,,-99.99,263.200012,,2013-03-13 22:12:00,
2013-03-13 18:22:00,74.0,35.0,-100.00,NNW,332,7.0,-999.0,24,0.00,,,-99.99,263.200012,,2013-03-13 22:22:00,
2013-03-13 18:32:00,73.0,35.0,-100.00,North,353,8.0,-999.0,24,0.00,,,-99.99,256.200012,,2013-03-13 22:32:00,
2013-03-13 18:42:00,73.0,35.0,-100.00,NNW,335,7.0,-999.0,24,0.00,,,-99.99,207.399994,,2013-03-13 22:42:00,
2013-03-13 18:52:00,73.0,35.0,-100.00,NNW,335,7.0,-999.0,24,0.00,,,-99.99,207.399994,,2013-03-13 22:52:00,
2013-03-13 19:02:00,72.0,36.0,-100.00,NNW,331,7.0,-999.0,26,0.00,,,-99.99,120.400002,,2013-03-13 23:02:00,
2013-03-13 19:12:00,72.0,36.0,-100.00,NW,317,7.0,-999.0,26,0.00,,,-99.99,24.200001,,2013-03-13 23:12:00,
2013-03-13 19:22:00,72.0,36.0,-100.00,NW,317,7.0,-999.0,26,0.00,,,-99.99,24.200001,,2013-03-13 23:22:00,
2013-03-13 19:32:00,69.0,36.0,-100.00,NW,315,5.0,-999.0,28,0.00,,,-99.99,17.700001,,2013-03-13 23:32:00,
2013-03-13 19:42:00,67.0,36.0,-100.00,NW,313,4.0,-999.0,31,0.00,,,-99.99,10.800000,,2013-03-13 23:42:00,
2013-03-13 19:52:00,67.0,36.0,-100.00,NW,313,4.0,-999.0,31,0.00,,,-99.99,10.800000,,2013-03-13 23:52:00,
2013-03-13 20:02:00,64.0,38.0,-100.00,NW,314,4.0,-999.0,38,0.00,,,-99.99,3.200000,,2013-03-14 00:02:00,
2013-03-13 20:22:00,61.0,39.0,-100.00,NW,318,4.0,-999.0,43,0.00,,,-99.99,0.100000,,2013-03-14 00:22:00,
2013-03-13 20:32:00,61.0,39.0,-100.00,NW,317,4.0,-999.0,44,0.00,,,-99.99,0.000000,,2013-03-14 00:32:00,
2013-03-13 20:42:00,60.0,39.0,-100.00,WNW,299,4.0,-999.0,47,0.00,,,-99.99,0.000000,,2013-03-14 00:42:00,
2013-03-13 20:52:00,60.0,39.0,-100.00,WNW,299,4.0,-999.0,47,0.00,,,-99.99,0.000000,,2013-03-14 00:52:00,
2013-03-13 21:02:00,59.0,42.0,-100.00,WNW,295,7.0,-999.0,53,0.00,,,-99.99,0.000000,,2013-03-14 01:02:00,
2013-03-13 21:12:00,59.0,43.0,-100.00,WNW,301,6.0,-999.0,56,0.00,,,-99.99,0.000000,,2013-03-14 01:12:00,
2013-03-13 21:22:00,59.0,43.0,-100.00,WNW,301,6.0,-999.0,56,0.00,,,-99.99,0.000000,,2013-03-14 01:22:00,
2013-03-13 21:32:00,58.0,43.0,-100.00,WNW,300,7.0,-999.0,57,0.00,,,-99.99,0.000000,,2013-03-14 01:32:00,
2013-03-13 21:42:00,59.0,43.0,-100.00,WNW,303,8.0,-999.0,54,0.00,,,-99.99,0.000000,,2013-03-14 01:42:00,
2013-03-13 21:53:00,59.0,43.0,-100.00,WNW,303,8.0,-999.0,54,0.00,,,-99.99,0.000000,,2013-03-14 01:53:00,
2013-03-13 22:02:00,58.0,42.0,-100.00,NW,304,8.0,-999.0,55,0.00,,,-99.99,0.000000,,2013-03-14 02:02:00,
2013-03-13 22:12:00,58.0,43.0,-100.00,NW,308,9.0,-999.0,56,0.00,,,-99.99,0.000000,,2013-03-14 02:12:00,
2013-03-13 22:22:00,58.0,43.0,-100.00,NW,308,9.0,-999.0,56,0.00,,,-99.99,0.000000,,2013-03-14 02:22:00,
2013-03-13 22:32:00,57.0,43.0,-100.00,NW,308,9.0,-999.0,58,0.00,,,-99.99,0.000000,,2013-03-14 02:32:00,
2013-03-13 22:42:00,57.0,43.0,-100.00,NW,308,9.0,-999.0,58,0.00,,,-99.99,0.000000,,2013-03-14 02:42:00,
2013-03-13 22:52:00,57.0,43.0,-100.00,NW,308,9.0,-999.0,58,0.00,,,-99.99,0.000000,,2013-03-14 02:52:00,
2013-03-13 23:02:00,56.0,42.0,-100.00,NW,310,7.0,-999.0,60,0.00,,,-99.99,0.000000,,2013-03-14 03:02:00,
2013-03-13 23:12:00,55.0,42.0,-100.00,NW,308,7.0,-999.0,62,0.00,,,-99.99,0.000000,,2013-03-14 03:12:00,
2013-03-13 23:23:00,55.0,42.0,-100.00,NW,308,7.0,-999.0,62,0.00,,,-99.99,0.000000,,2013-03-14 03:23:00,
2013-03-13 23:32:00,54.0,43.0,-100.00,NNE,13,5.0,-999.0,64,0.00,,,-99.99,0.000000,,2013-03-14 03:32:00,
2013-03-13 23:42:00,54.0,43.0,-100.00,NNE,13,5.0,-999.0,64,0.00,,,-99.99,0.000000,,2013-03-14 03:42:00,
2013-03-13 23:53:00,54.0,43.0,-100.00,NE,50,4.0,-999.0,65,0.00,,,-99.99,0.000000,,2013-03-14 03:53:00,